Regional Weather Roundup
Issued by NWS

Home | Current Version | Previous Version | Graphics & Text | Print | Product List | Glossary On
Versions: 1 2 3 4 5 6 7 8 9 10 11 12 13 14 15 16 17 18 19 20 21 22 23 24 25 26 27
000
ASUS43 KDMX 161907
RWRIA

WEATHER ROUNDUP FOR IOWA
NATIONAL WEATHER SERVICE DES MOINES IA
200 PM CDT WED APR 16 2014

NOTE: "FAIR" INDICATES FEW OR NO CLOUDS BELOW 12,000 FEET WITH NO
SIGNIFICANT WEATHER AND/OR OBSTRUCTIONS TO VISIBILITY.

* - THESE STATIONS ARE NOT NWS STATIONS...THUS NOT UNDER NWS
QUALITY CONTROL.  THEY ALSO DO NOT REPORT WEATHER SUCH
AS PRECIPITATION OR FOG.

IAZ001>003-012>014-020>022-031>034-043>046-162000-
   NORTHWEST IOWA

CITY           SKY/WX    TMP DP  RH WIND       PRES   REMARKS
CARROLL *      CLOUDY    57  28  33 S33G46    29.72F
CHEROKEE *     CLOUDY    58  29  33 S25G35    29.68F
DENISON *      CLOUDY    61  32  33 S30G41    29.68F
LE MARS *      CLOUDY    57  28  33 SW15G25   29.65S
ORANGE CITY *  CLOUDY    55  21  26 SW23G30   29.65S
SHELDON *      CLOUDY    54  28  37 S22G31    29.66F
SIOUX CITY     PTSUNNY   61  27  27 SW23G31   29.67F
SPENCER        CLOUDY    55  30  38 S25G37    29.69S
STORM LAKE *   CLOUDY    57  30  35 S30G43    29.69F
$$

IAZ055>058-069>071-079>083-090>094-162000-
   SOUTHWEST IOWA

CITY           SKY/WX    TMP DP  RH WIND       PRES   REMARKS
ATLANTIC *     CLOUDY    61  32  33 S32G44    29.72S
AUDUBON *      CLOUDY    59  19  21 S30G40    29.74F
COUNCIL BLFS * PTSUNNY   64  30  27 SW32G45   29.68S
CRESTON *      CLOUDY    61  32  33 S37G51    29.78F
HARLAN  *      CLOUDY    61  30  31 S29G41    29.73S
LAMONI         CLOUDY    60  31  33 S29G43    29.82F
RED OAK *      PTSUNNY   63  32  31 S31G43    29.74S
SHENANDOAH *   PTSUNNY   64  30  27 S32G46    29.74F
$$

IAZ047>049-059>061-072>074-084-162000-
   CENTRAL IOWA

CITY           SKY/WX    TMP DP  RH WIND       PRES   REMARKS
AMES           PTSUNNY   59  29  31 S29G41    29.79F
ANKENY *       PTSUNNY   61  30  31 S29G41    29.79F
CHARITON *     PTSUNNY   59  34  38 S30G37    29.83F
DES MOINES     CLOUDY    62  28  27 S32G43    29.81F
GRINNELL*      CLOUDY    60  31  33 S30G37    29.87F
KNOXVILLE *    PTSUNNY   59  30  33 S28G40    29.83F
MARSHALLTOWN   CLOUDY    58  32  37 S25G44    29.82F
NEWTON *       CLOUDY    59  28  31 S36G44    29.83F
PELLA *        CLOUDY    59  30  33 S26G39    29.87F
PERRY *          N/A     62  28  27 S32G41    29.76F
$$

IAZ004>006-015-016-023>025-035-036-162000-
   NORTH CENTRAL IOWA

CITY           SKY/WX    TMP DP  RH WIND       PRES   REMARKS
ALGONA *       CLOUDY    57  34  41 S26G36    29.70F
CLARION *      CLOUDY    57  32  38 S32G39    29.75F
ESTHERVILLE    CLOUDY    54  31  41 S28G36    29.70F
FORT DODGE *   CLOUDY    59  34  38 S22G32    29.73F
MASON CITY     CLOUDY    58  33  39 S28G41    29.78F
FOREST CITY *    N/A     57  34  41 S29G36    29.74F
IOWA FALLS *     N/A     58  31  35 S32G43    29.81F
$$

IAZ007>011-017>019-026>030-037>042-050>054-066-162000-
   NORTHEAST IOWA

CITY           SKY/WX    TMP DP  RH WIND       PRES   REMARKS
CEDAR RAPIDS   MOSUNNY   58  30  34 S28G39    29.93F
CHARLES CITY * CLOUDY    55  34  44 S33G46    29.83F
CLINTON *      SUNNY     54  27  35 S31G37    30.08F
DECORAH *      CLOUDY    50  32  50 S20G33    29.90F
DUBUQUE        SUNNY     53  28  38 S31G44    30.00F
MONTICELLO *   SUNNY     55  32  41 SE28G43   29.98F
OELWEIN *      PTSUNNY  N/A N/A N/A S30G43    29.91F
WATERLOO       CLOUDY    57  31  37 S22G31    29.87F
$$

IAZ064-065-067-068-078-162000-
   EAST CENTRAL IOWA

CITY           SKY/WX    TMP DP  RH WIND       PRES   REMARKS
DAVENPORT      SUNNY     56  29  35 S25G39    30.05F
IOWA CITY      MOSUNNY   57  32  38 S23G41    29.99F
MT. PLEASANT * SUNNY     58  29  33 S30G43    30.00F
MUSCATINE *    SUNNY     59  30  33 S24G35    30.01F
QUAD CITIES    SUNNY     56  26  31 S20G35    30.04F
$$

IAZ062-063-075>077-085>089-095>099-162000-
   SOUTHEAST IOWA

CITY           SKY/WX    TMP DP  RH WIND       PRES   REMARKS
BURLINGTON     SUNNY     57  29  34 S20G36    30.03F
FAIRFIELD *    SUNNY     59  30  33 S32G40    29.95F
FORT MADISON * SUNNY     55  30  38 S16G33    30.03F
KEOKUK *       SUNNY     57  28  33 S23G33    30.01F
OSKALOOSA *      N/A     61  33  35 S26G33    29.91F
CENTERVILLE *    N/A     63  32  31 S31G39    29.91F
OTTUMWA        MOSUNNY   60  31  33 S32G44    29.92F
WASHINGTON *   SUNNY     59  30  33 S28G40    29.96F
$$

ABBREVIATIONS USED IN REMARKS
   TC - TEMPERATURES IN CELSIUS
  WCI - WIND CHILL INDEX
   HX - HEAT INDEX
  VSB - VISIBILITY
$$




USA.gov is the U.S. government's official web portal to all federal, state and local government web resources and services.